This is the latest recevied weather packets stored in our database for station/object K5KVN. If no packets are shown the sender has not sent any weather packets the latest 10 day(s).
| Time | Temp. | Humidity | Pressure | Rain* | Wind** | Luminosity | Snow |
|---|---|---|---|---|---|---|---|
| 1787764014 | 33.89° C | 59% | 1017 hPa | 0 mm | - | - | - |
| 1787763414 | 33.89° C | 59% | 1017.1 hPa | 0 mm | - | - | - |
| 1787762812 | 33.89° C | 62% | 1017.2 hPa | 0 mm | - | - | - |
| 1787762211 | 33.33° C | 60% | 1017.2 hPa | 0 mm | - | - | - |
| 1787761611 | 33.33° C | 61% | 1017.3 hPa | 0 mm | - | - | - |
| 1787761008 | 33.33° C | 62% | 1017.3 hPa | 0 mm | - | - | - |
| 1787760407 | 32.78° C | 63% | 1017.2 hPa | 0 mm | - | - | - |
| 1787759807 | 32.78° C | 64% | 1017.3 hPa | 0 mm | - | - | - |
| 1787759206 | 32.22° C | 65% | 1017.3 hPa | 0 mm | - | - | - |
| 1787758603 | 31.67° C | 65% | 1017.2 hPa | 0 mm | - | - | - |
| 1787758003 | 31.67° C | 67% | 1017.3 hPa | 0 mm | - | - | - |
| 1787757402 | 31.11° C | 69% | 1017.3 hPa | 0 mm | - | - | - |
| 1787756802 | 30° C | 71% | 1017.2 hPa | 0 mm | - | - | - |
| 1787756264 | 29.44° C | 71% | 1017.2 hPa | 0 mm | - | - | - |
| 1787755602 | 28.89° C | 73% | 1017.2 hPa | 0 mm | - | - | - |
| 1787755002 | 28.33° C | 75% | 1017.1 hPa | 0 mm | - | - | - |
| 1787754403 | 28.33° C | 76% | 1017 hPa | 0 mm | - | - | - |
| 1787753864 | 27.78° C | 80% | 1016.9 hPa | 0 mm | - | - | - |
| 1787753202 | 27.22° C | 81% | 1017 hPa | 0 mm | - | - | - |
| 1787752663 | 27.22° C | 83% | 1017 hPa | 0 mm | - | - | - |
| 1787752002 | 26.67° C | 85% | 1016.9 hPa | 0 mm | - | - | - |
| 1787751402 | 26.11° C | 86% | 1017 hPa | 0 mm | - | - | - |
| 1787750802 | 26.11° C | 88% | 1017 hPa | 0 mm | - | - | - |
| 1787750202 | 25.56° C | 89% | 1017 hPa | 0 mm | - | - | - |
| 1787749662 | 25.56° C | 91% | 1016.9 hPa | 0 mm | - | - | - |
* Rain latest hour (hover to see other rain measurements)
** Current wind speed in m/s (hover to see current wind gust speed)